Regional Weather Roundup
Issued by NWS Portland, ME

Home | Current Version | Previous Version | Text Only | Print | Product List | Glossary On
Versions: 1 2 3 4 5 6 7 8 9 10 11 12 13 14 15 16 17 18 19 20 21 22 23 24 25 26 27 28 29 30 31 32 33 34 35 36 37 38 39 40 41 42 43 44 45 46 47 48 49 50
000
ASUS41 KGYX 210710
RWRGYX
WEATHER ROUNDUP FOR MAINE AND NEW HAMPSHIRE
NATIONAL WEATHER SERVICE GRAY ME
300 AM EDT TUE APR 21 2015

MEZ002-005-006-010-012-015-018-020-021-024-026-027-029-210800-
MAINE

CITY           SKY/WX    TMP DP  RH WIND       PRES   REMARKS
PORTLAND       HVY RAIN  48  45  89 VRB6      29.76S FOG
SANFORD        CLOUDY    46  41  81 NE7       29.73F
BAR HARBOR     CLOUDY    41  41 100 E17G32    29.96F
WISCASSET      RAIN      45  43  93 E14G26    29.81F FOG
ROCKLAND       CLOUDY    43  39  87 E24G30    29.84F
FRYEBURG       LGT RAIN  44  43  96 NE9       29.78F
LEWISTONAUBURN CLOUDY    45  41  87 NE7       29.80F
AUGUSTA        LGT RAIN  43  41  93 E14G24    29.82F FOG
WATERVILLE     CLOUDY    43  37  81 E3        29.83F
BANGOR         LGT RAIN  42  40  92 SE21G33   29.95F FOG
GREENVILLE       N/A     37  36  96 SE12G25   29.87F
MILLINOCKET    LGT RAIN  41  37  86 SE10G17   30.00F
HOULTON        CLOUDY    38  34  85 SE9G24    30.03F
PRESQUE ISLE   CLOUDY    37  30  75 SE14      30.03F
FRENCHVILLE    CLOUDY    35  32  88 SE22G30   30.00F
CARIBOU        LGT RAIN  37  32  82 SE18G28   30.03F
$$

NHZ002-005-008-009-011-012-014-210800-
NEW HAMPSHIRE

CITY           SKY/WX    TMP DP  RH WIND       PRES   REMARKS
PORTSMOUTH     LGT RAIN  47  46  96 SE13      29.66F FOG
ROCHESTER      LGT RAIN  47  45  93 E7        29.68F FOG
NASHUA         CLOUDY    51  50  97 CALM      29.63F FOG
MANCHESTER     DRZL/FOG  49  47  93 VRB5      29.62F VSB 1
CONCORD        CLOUDY    47  45  93 NE7       29.65F FOG
LACONIA        CLOUDY    45  39  81 NE9       29.69F
PLYMOUTH       HVY RAIN  46  46 100 CALM      29.70F
BERLIN         LGT RAIN  45  39  79 E9        29.76F
WHITEFIELD     CLOUDY    49  39  68 E7        29.68F
JAFFREY        LGT RAIN  45  44  97 CALM      29.62F FOG
KEENE          CLOUDY    46  45  93 N9        29.61F
LEBANON        CLOUDY    46  44  93 CALM      29.64F
MT WASHINGTON  FRZ RAIN  30  30 100 SE41G59     N/A  VSB 0   WCI  13
$$

VTZ005-007-008-210800-
VERMONT

CITY           SKY/WX    TMP DP  RH WIND       PRES   REMARKS
ST JOHNSBURY     N/A     48  41  76 MISG      29.65F
MONTPELIER     CLOUDY    45  41  86 VRB3      29.67F
BURLINGTON     CLOUDY    51  42  71 SE6       29.59S
$$

MAZ007-012-024-CTZ003-RIZ002-NYZ038-NYZ072-210800-
SOUTHERN NEW ENGLAND AND NY

CITY           SKY/WX    TMP DP  RH WIND       PRES   REMARKS
BOSTON         FOG       48  48 100 E8        29.63F VSB 1/2
WORCESTER      LGT RAIN  49  48  97 NE6       29.59F VSB 1/4
NANTUCKET      LGT RAIN  51  50  96 SE20      29.66F VSB 1/2
PROVIDENCE     FOG       52  51  97 S7        29.61F VSB 1/2
HARTFORD       TSTM      50  48  93 N10       29.56F FOG
ALBANY         LGT RAIN  51  48  89 N8        29.58F
NEW YORK CITY  RAIN      53  50  89 NW9       29.55F FOG
$$

ANZ081-ANZ082-ANZ150-NHZ014-MEZ023>029-210800-
COASTAL MARINE OBSERVATIONS

STATION/POSITION TIME  TEMP    WIND        PRES    WAVE
                       AIR SEA DIR/SP/G            HT/PER
                 (UTC) (F)     (DEG/KT/KT) (MB)    (FT/S)
MOUNT DESERT ROC 0700   42     100/ 39/ 47 1011.6F
MATINICUS ROCK   0700   42     120/ 44/ 49 1008.0F
WELLS            0600   46 41  150/ 13/ 21 1006.3F
ISLE OF SHOALS   0700   46     140/ 27/ 31 1002.7F
CASHES LEDGE BUO 0650   45 40              1007.1F  13/ 8
$$

.............KEY..............
   WCI - WIND CHILL
   TC  - TEMPERATURE IN CELSIUS
   VSB - VISIBILITY IN MILES
   HX  - HEAT INDEX
   FAIR- INDICATES FEW OR NO CLOUDS BELOW 12,000 FT, WITH NO
         SIGNIFICANT WEATHER AND/OR OBSTRUCTIONS TO VISIBILITY.




USA.gov is the U.S. government's official web portal to all federal, state and local government web resources and services.